This is the latest recevied weather packets stored in our database for station/object W1GK. If no packets are shown the sender has not sent any weather packets the latest 10 day(s).
| Time | Temp. | Humidity | Pressure | Rain* | Wind** | Luminosity | Snow |
|---|---|---|---|---|---|---|---|
| 1787450998 | 38.89° C | 13% | 1012.7 hPa | 0 mm | - | 9 W/m² | - |
| 1787450401 | 39.44° C | 13% | 1012.6 hPa | 0 mm | - | 12 W/m² | - |
| 1787449799 | 39.44° C | 12% | 1012.7 hPa | 0 mm | - | 16 W/m² | - |
| 1787449199 | 40° C | 12% | 1012.6 hPa | 0 mm | - | 19 W/m² | - |
| 1787448600 | 40.56° C | 12% | 1012.7 hPa | 0 mm | - | 121 W/m² | - |
| 1787448000 | 40.56° C | 12% | 1012.7 hPa | 0 mm | - | 151 W/m² | - |
| 1787447398 | 41.11° C | 12% | 1012.8 hPa | 0 mm | - | 181 W/m² | - |
| 1787446802 | 41.67° C | 12% | 1012.7 hPa | 0 mm | - | 209 W/m² | - |
| 1787446200 | 42.22° C | 11% | 1012.8 hPa | 0 mm | - | 243 W/m² | - |
| 1787445600 | 42.22° C | 11% | 1012.7 hPa | 0 mm | - | 271 W/m² | - |
| 1787444999 | 42.78° C | 11% | 1012.7 hPa | 0 mm | - | 297 W/m² | - |
| 1787444400 | 42.78° C | 11% | 1012.7 hPa | 0 mm | - | 330 W/m² | - |
| 1787443800 | 42.78° C | 11% | 1012.7 hPa | 0 mm | - | 362 W/m² | - |
| 1787443202 | 42.78° C | 11% | 1012.8 hPa | 0 mm | - | 390 W/m² | - |
| 1787442599 | 42.78° C | 11% | 1013 hPa | 0 mm | - | 427 W/m² | - |
| 1787441998 | 42.78° C | 11% | 1013 hPa | 0 mm | - | 455 W/m² | - |
| 1787441398 | 43.33° C | 11% | 1013 hPa | 0 mm | - | 489 W/m² | - |
| 1787440798 | 43.33° C | 11% | 1013 hPa | 0 mm | - | 515 W/m² | - |
| 1787440198 | 43.33° C | 11% | 1013.1 hPa | 0 mm | - | 543 W/m² | - |
| 1787439601 | 43.33° C | 11% | 1013.3 hPa | 0 mm | - | 568 W/m² | - |
| 1787438999 | 43.89° C | 11% | 1013.4 hPa | 0 mm | - | 594 W/m² | - |
| 1787438398 | 43.89° C | 12% | 1013.5 hPa | 0 mm | - | 622 W/m² | - |
| 1787437799 | 43.89° C | 12% | 1013.6 hPa | 0 mm | - | 657 W/m² | - |
| 1787437199 | 43.89° C | 12% | 1013.8 hPa | 0 mm | - | 679 W/m² | - |
| 1787436599 | 43.89° C | 12% | 1013.9 hPa | 0 mm | - | 738 W/m² | - |
* Rain latest hour (hover to see other rain measurements)
** Current wind speed in m/s (hover to see current wind gust speed)